Location: Newark
(48.1500°N, 80.0333°W)
Time: 11:12:05
(UTC+00:00)

Envisat - Visible Passes

Search period start: 23 February 2020 00:00
Search period end: 04 March 2020 00:00
Orbit: 764 x 766 km, 98.1° (Epoch: 23 February)

Date Brightness Start Highest point End Pass type
(mag) Time Alt. Az. Time Alt. Az. Time Alt. Az.
23 Feb 4.3 11:36:26 10° NNE 11:41:21 46° E 11:46:13 10° S visible
24 Feb 6.3 00:36:35 10° WSW 00:39:11 14° W 00:41:48 10° NW visible
24 Feb 5.7 11:00:16 10° NE 11:04:18 23° E 11:08:17 10° SE visible
24 Feb 5.3 23:57:37 10° SSW 00:01:59 28° W 00:06:22 10° NW visible
25 Feb 6.7 10:25:45 10° ENE 10:27:01 11° E 10:28:18 10° E visible
25 Feb 3.8 23:19:59 10° S 23:24:59 58° W 23:30:02 10° NNW visible
26 Feb 4.8 11:25:15 10° NNE 11:29:59 37° E 11:34:41 10° SSE visible
27 Feb 6.1 00:24:25 10° SW 00:27:44 17° W 00:31:05 10° NW visible
27 Feb 6.1 10:49:20 10° NE 10:52:52 19° E 10:56:24 10° SE visible
27 Feb 4.9 23:45:59 10° SSW 23:50:36 35° W 23:55:16 10° NNW visible
29 Feb 5.3 11:14:07 10° NNE 11:18:36 30° E 11:23:04 10° SSE visible
01 Mar 5.8 00:12:28 10° SW 00:16:19 21° W 00:20:11 10° NW visible
01 Mar 6.3 10:38:32 10° NE 10:41:25 15° E 10:44:18 10° ESE visible
01 Mar 4.5 23:34:25 10° S 23:39:14 43° W 23:44:05 10° NNW visible
03 Mar 6.4 00:39:54 10° WSW 00:42:08 13° W 00:44:22 10° WNW visible
03 Mar 5.7 11:03:02 10° NE 11:07:12 25° E 11:11:21 10° SSE visible
